Retour au catalogue

STARLINK-37088

ActifCommunicationsVLEO
NORAD 68322·PAYLOAD·🇺🇸 United States

Lancé Mar 22, 2026 depuis Cape Canaveral Space Force Station

Loading…

Prochains Passages (prochaines 24 heures)

TLE

FraisSource: CelesTrak SupGP

Époque: Sep 15, 2026, 04:24 UTC

1 68322C 26059B   26258.18381944  .00015303  00000+0  45223-3 0  2582
2 68322  53.1588 180.6194 0001224  87.0786 248.7884 15.34375880    13

Suivez STARLINK-37088 en temps réel avec AllMySat

Download on the App Store